Location: Caltech
(34.1382°N, 118.1253°W)
Time: 12:51:09
(UTC-07:00)

Iridium 91 - Visible Passes

Search period start: 27 May 2015 00:00
Search period end: 06 June 2015 00:00
Orbit: 776 x 779 km, 86.4° (Epoch: 27 May)

Date Brightness Start Highest point End Pass type
(mag) Time Alt. Az. Time Alt. Az. Time Alt. Az.
27 May 6.9 01:09:11 34° NNW 01:09:11 34° NNW 01:12:13 10° N visible
28 May 6.9 00:35:41 35° NNE 00:35:41 35° NNE 00:38:43 10° N visible
29 May 7.2 00:02:10 25° NE 00:02:10 25° NE 00:04:48 10° NNE visible
29 May 7.6 01:42:38 19° NW 01:42:38 19° NW 01:44:52 10° NNW visible
29 May 7.7 23:28:39 15° ENE 23:28:39 15° ENE 23:30:16 10° NE visible
30 May 7.1 01:09:07 30° NW 01:09:07 30° NW 01:12:07 10° NNW visible
31 May 6.7 00:35:35 39° N 00:35:35 39° N 00:38:51 10° N visible
01 Jun 6.8 00:02:03 34° NE 00:02:03 34° NE 00:05:11 10° NNE visible
01 Jun 7.9 01:42:31 13° WNW 01:42:31 13° WNW 01:44:00 10° NW visible
01 Jun 7.3 23:28:31 22° NE 23:28:31 22° NE 23:31:05 10° NNE visible
02 Jun 7.3 01:08:58 24° NW 01:08:58 24° NW 01:11:49 10° NNW visible
02 Jun 7.8 22:54:58 12° ENE 22:54:58 12° ENE 22:56:04 10° NE visible
03 Jun 6.7 00:35:25 38° NNW 00:35:25 38° NNW 00:38:50 10° N visible
04 Jun 6.5 00:01:52 44° NNE 00:01:52 44° NNE 00:05:25 10° N visible
04 Jun 6.8 23:28:18 32° NE 23:28:18 32° NE 23:31:36 10° NNE visible
05 Jun 7.6 01:08:46 18° WNW 01:08:46 18° WNW 01:11:16 10° NW visible
05 Jun 7.3 22:54:44 19° ENE 22:54:44 19° ENE 22:57:14 10° NE visible
